Location: Voyageurs National Park
(48.5020°N, 92.9292°W)
Time: 22:01:12
(UTC-06:00)

Amateur Radio Satellites - All Passes

Search period start: 26 February 2015 21:31
Search period end: 27 February 2015 21:31
Location: Voyageurs National Park, 48.5020°N, 92.9292°W

Satellite Date Start Highest point End Downlink Frequencies (MHz)
Time Altitude Azimuth
GONETS M04 26 Feb 21:36:32 21:44:21 41° 86° (E) 21:52:18
ESTCUBE 1 26 Feb 21:37:07 21:40:57 29° 65° (ENE) 21:44:54 437.505/2401.250
VELOX 1 26 Feb 21:37:49 21:42:12 55° 71° (ENE) 21:46:37 145.980
DX 1 26 Feb 21:43:33 21:47:53 56° 259° (WSW) 21:52:15 434.975-435.025
CUBEBUG 1 26 Feb 21:45:47 21:49:40 31° 66° (ENE) 21:53:38 437.445
50 SAT 26 Feb 21:48:20 21:52:18 64° 74° (ENE) 21:56:15 437.505
CINEMA 3 26 Feb 21:49:46 21:53:47 25° 267° (W) 21:57:36 145.822/145.860
UNISAT 6 26 Feb 21:51:38 21:54:15 16° 89° (E) 21:57:03 437.425
GOMX 1 26 Feb 21:52:21 21:55:03 13° 276° (W) 21:57:27 467.674
PCSat 26 Feb 21:55:28 22:00:48 65° 120° (ESE) 22:06:13 145.827
ZACube-1 26 Feb 22:02:26 22:06:35 38° 263° (W) 22:10:39 437.345
FUNcube-1 26 Feb 22:02:51 22:07:00 38° 263° (W) 22:11:03 145.935
POLYITAN 1 26 Feb 22:05:59 22:07:55 13° 87° (E) 22:10:03 437.675
DELFI C3 26 Feb 22:07:49 22:10:57 21° 268° (W) 22:14:00 145.870
POPSAT HIP 1 26 Feb 22:08:42 22:10:48 14° 87° (E) 22:13:05 437.405
UWE-3 26 Feb 22:12:00 22:15:51 27° 266° (W) 22:19:35 435.000/436.395/437.385
AIST 2 26 Feb 22:14:11 22:16:24 14° 338° (NNW) 22:18:34 435.215
TIGRISAT 26 Feb 22:18:12 22:21:54 28° 94° (E) 22:25:38 435.000
UKube-1 26 Feb 22:19:40 22:23:24 27° 266° (W) 22:27:06 .
PHONESAT 2.4 26 Feb 22:22:22 22:25:17 23° 179° (S) 22:28:13 2401.200-2431.200
ANTELSAT 26 Feb 22:29:06 22:33:05 37° 97° (E) 22:37:05 437.575/2403.000
NANOSAT C BR1 26 Feb 22:32:41 22:36:07 24° 93° (E) 22:39:34 145.865
SPROUT 26 Feb 22:35:46 22:39:24 27° 66° (ENE) 22:43:06 437.525
HUMSAT D 26 Feb 22:41:11 22:44:51 27° 266° (W) 22:48:26 437.325/437.525
CUBEBUG 2 26 Feb 22:42:13 22:44:28 13° 273° (W) 22:46:29 437.445
VERMONT LUNAR 26 Feb 22:49:49 22:52:21 19° 191° (S) 22:54:52 437.305
TISAT 1 26 Feb 22:55:06 22:59:03 37° 69° (ENE) 23:03:03 437.305
AISAT 26 Feb 23:03:40 23:07:20 23° 268° (W) 23:10:56 437.250
QB50P1 26 Feb 23:03:53 23:08:02 49° 100° (E) 23:12:08 145.935-145.965
QB50P2 26 Feb 23:06:07 23:10:18 52° 100° (E) 23:14:26 145.880/145.840
RS-15 26 Feb 23:07:55 23:17:05 34° 108° (ESE) 23:26:36 29.354- 29.394
ESTCUBE 1 26 Feb 23:13:33 23:17:45 37° 263° (W) 23:21:59 437.505/2401.250
VELOX 1 26 Feb 23:15:55 23:19:10 19° 270° (W) 23:22:17 145.980
CUBEBUG 1 26 Feb 23:21:59 23:26:02 33° 265° (W) 23:30:03 437.445
DUCHIFAT 1 26 Feb 23:25:08 23:29:25 80° 105° (ESE) 23:33:37 145.980
50 SAT 26 Feb 23:25:48 23:27:48 13° 272° (W) 23:29:38 437.505
UNISAT 6 26 Feb 23:27:17 23:31:30 57° 288° (WNW) 23:35:43 437.425
GONETS M04 26 Feb 23:32:35 23:41:03 53° 289° (WNW) 23:49:32
DANDE 26 Feb 23:33:12 23:38:15 22° 92° (E) 23:42:38 436.750
BUGSAT 1 26 Feb 23:37:21 23:41:36 82° 103° (ESE) 23:45:45 437.445
PCSat 26 Feb 23:39:56 23:44:41 29° 321° (NW) 23:49:25 145.827
POLYITAN 1 26 Feb 23:40:12 23:44:27 71° 286° (WNW) 23:48:39 437.675
POPSAT HIP 1 26 Feb 23:43:01 23:47:15 67° 287° (WNW) 23:51:26 437.405
SWISSCUBE 26 Feb 23:44:01 23:47:56 26° 63° (ENE) 23:51:57 437.505
BEESAT 26 Feb 23:53:19 23:57:23 29° 64° (ENE) 00:01:31 436.000
TIGRISAT 26 Feb 23:54:53 23:58:43 32° 293° (WNW) 00:02:30 435.000
PHONESAT 2.4 27 Feb 00:00:42 00:03:06 17° 196° (SSW) 00:05:29 2401.200-2431.200
BEESAT 3 27 Feb 00:03:27 00:04:06 10° 15° (NNE) 00:04:49 437.485
ANTELSAT 27 Feb 00:06:13 00:09:47 25° 295° (WNW) 00:13:16 437.575/2403.000
NANOSAT C BR1 27 Feb 00:08:10 00:12:08 38° 291° (WNW) 00:16:02 145.865
SPROUT 27 Feb 00:11:21 00:15:24 36° 264° (W) 00:19:26 437.525
ITUPSAT 1 27 Feb 00:17:18 00:21:51 45° 68° (ENE) 00:26:27 437.325
BEESAT 2 27 Feb 00:23:33 00:25:02 12° 19° (NNE) 00:26:35 435.950
CUSAT 1 27 Feb 00:27:01 00:33:34 64° 100° (E) 00:38:32 437.405
TISAT 1 27 Feb 00:31:25 00:35:00 25° 267° (W) 00:38:31 437.305
QB50P1 27 Feb 00:40:28 00:43:38 20° 297° (WNW) 00:46:42 145.935-145.965
QB50P2 27 Feb 00:42:50 00:45:53 19° 298° (WNW) 00:48:51 145.880/145.840
DUCHIFAT 1 27 Feb 01:02:32 01:04:43 14° 301° (WNW) 01:06:44 145.980
ITAMSAT 1 27 Feb 01:05:57 01:07:10 11° 83° (E) 01:08:43 435.822/435.867
KKS-1 27 Feb 01:14:14 01:18:18 35° 67° (ENE) 01:22:24 437.445
DANDE 27 Feb 01:14:22 01:21:29 70° 283° (WNW) 01:26:50 436.750
BUGSAT 1 27 Feb 01:14:29 01:16:32 13° 301° (WNW) 01:18:24 437.445
Oscar 19 27 Feb 01:14:38 01:19:21 36° 96° (E) 01:24:04 437.125/150
RS-15 27 Feb 01:17:35 01:28:32 80° 312° (NW) 01:39:45 29.354- 29.394
SWISSCUBE 27 Feb 01:21:01 01:25:37 45° 261° (W) 01:30:14 437.505
PCSat 27 Feb 01:27:44 01:29:58 12° 346° (NNW) 01:32:08 145.827
STARS 27 Feb 01:30:35 01:34:35 34° 67° (ENE) 01:38:37 437.465
BEESAT 27 Feb 01:30:37 01:35:07 40° 263° (W) 01:39:38 436.000
YUBILEINY 27 Feb 01:33:36 01:39:25 19° 51° (NE) 01:45:35 435.215
AIST 2 27 Feb 01:34:34 01:37:15 16° 26° (NNE) 01:39:59 435.215
GONETS M04 27 Feb 01:36:15 01:40:35 14° 316° (NW) 01:44:30
SO-50 27 Feb 01:36:32 01:37:42 11° 108° (ESE) 01:39:09 436.795
BEESAT 3 27 Feb 01:39:55 01:43:33 28° 38° (NE) 01:47:11 437.485
Gurwin Techsat 1B 27 Feb 01:50:31 01:54:32 22° 90° (E) 01:58:40 435.225
ITUPSAT 1 27 Feb 01:56:01 01:59:59 25° 268° (W) 02:03:54 437.325
BEESAT 2 27 Feb 02:00:34 02:04:26 35° 41° (NE) 02:08:17 435.950
CUSAT 1 27 Feb 02:11:51 02:16:39 22° 292° (WNW) 02:20:29 437.405
AO-7 27 Feb 02:41:31 02:45:43 15° 82° (E) 02:50:26 29.400- 29.500
ITAMSAT 1 27 Feb 02:42:29 02:47:45 74° 104° (ESE) 02:52:58 435.822/435.867
KKS-1 27 Feb 02:51:04 02:55:01 29° 265° (W) 02:58:55 437.445
Oscar 19 27 Feb 02:54:03 02:58:43 35° 295° (WNW) 03:03:18 437.125/150
DANDE 27 Feb 03:02:27 03:05:29 13° 300° (WNW) 03:07:58 436.750
HORYU 2 27 Feb 03:03:30 03:07:13 26° 94° (E) 03:10:58 437.375
STARS 27 Feb 03:07:11 03:11:07 29° 265° (W) 03:14:59 437.465
AIST 2 27 Feb 03:12:27 03:16:44 62° 48° (NE) 03:20:56 435.215
SO-50 27 Feb 03:12:50 03:17:28 74° 126° (SE) 03:22:16 436.795
PCSat 27 Feb 03:13:54 03:15:53 12° 12° (NNE) 03:17:58 145.827
M-CUBED/EXP-1 PRIME 27 Feb 03:14:53 03:18:11 86° 72° (ENE) 03:21:37 437.505
BEESAT 3 27 Feb 03:17:51 03:21:51 47° 238° (WSW) 03:25:47 437.485
AUBIESAT-1 27 Feb 03:20:27 03:23:45 88° 55° (NE) 03:27:11 437.475
YUBILEINY 27 Feb 03:29:24 03:38:16 72° 77° (ENE) 03:47:06 435.215
Gurwin Techsat 1B 27 Feb 03:29:43 03:34:59 60° 289° (WNW) 03:40:13 435.225
MOZHAYETS 4 27 Feb 03:31:37 03:35:56 44° 70° (ENE) 03:40:19
RS-15 27 Feb 03:32:42 03:42:50 39° 342° (NNW) 03:53:13 29.354- 29.394
BEESAT 2 27 Feb 03:38:48 03:42:37 35° 241° (WSW) 03:46:22 435.950
JAS-2 27 Feb 04:10:59 04:17:47 45° 96° (E) 04:25:10 435.910
ITAMSAT 1 27 Feb 04:22:59 04:26:44 20° 302° (WNW) 04:30:21 435.822/435.867
AO-7 27 Feb 04:32:03 04:40:21 69° 105° (ESE) 04:48:37 29.400- 29.500
PRISM 27 Feb 04:36:05 04:39:03 20° 62° (ENE) 04:42:08 437.425
HORYU 2 27 Feb 04:39:53 04:44:01 38° 292° (WNW) 04:48:07 437.375
AIST 2 27 Feb 04:51:53 04:54:58 19° 246° (WSW) 04:57:53 435.215
SO-50 27 Feb 04:54:33 04:58:32 26° 328° (NNW) 05:02:34 436.795
PCSat 27 Feb 04:56:38 05:01:15 28° 37° (NE) 05:05:54 145.827
MOZHAYETS 4 27 Feb 05:09:43 05:13:25 23° 269° (W) 05:17:03
Gurwin Techsat 1B 27 Feb 05:12:08 05:14:02 12° 308° (NW) 05:15:40 435.225
CUBESAT XI-V 27 Feb 05:18:45 05:23:13 46° 69° (ENE) 05:27:45 437.345
STRAND 1 27 Feb 05:23:39 05:28:22 38° 66° (ENE) 05:33:08 437.568
YUBILEINY 27 Feb 05:27:05 05:34:26 30° 278° (W) 05:41:34 435.215
Cubesat XI-IV 27 Feb 05:38:02 05:42:15 23° 91° (E) 05:46:33 437.490
CUTE-I 27 Feb 05:48:04 05:52:36 28° 93° (E) 05:57:12 437.470
RS-15 27 Feb 05:48:40 05:58:47 38° 15° (NNE) 06:09:21 29.354- 29.394
JAS-2 27 Feb 05:56:09 06:02:53 47° 294° (WNW) 06:10:06 435.910
PRISM 27 Feb 06:10:15 06:14:16 48° 261° (W) 06:18:20 437.425
AO-7 27 Feb 06:25:24 06:32:44 35° 306° (NW) 06:39:55 29.400- 29.500
SO-50 27 Feb 06:38:36 06:40:44 13° 352° (N) 06:42:52 436.795
PCSat 27 Feb 06:39:46 06:45:12 71° 239° (WSW) 06:50:36 145.827
CUBESAT XI-V 27 Feb 06:57:06 07:00:55 24° 269° (W) 07:04:41 437.345
STRAND 1 27 Feb 07:02:58 07:07:37 34° 265° (W) 07:12:17 437.568
AIST 1 27 Feb 07:17:07 07:21:07 37° 92° (E) 07:25:12
Cubesat XI-IV 27 Feb 07:17:30 07:22:47 58° 291° (WNW) 07:28:02 437.490
CUTE-I 27 Feb 07:27:46 07:32:57 48° 292° (WNW) 07:38:05 437.470
GONETS M04 27 Feb 07:41:20 07:48:12 26° 57° (ENE) 07:55:19
JAS-2 27 Feb 07:43:45 07:46:35 12° 313° (NW) 07:49:10 435.910
BRITE-PL 27 Feb 07:45:21 07:48:33 18° 87° (E) 07:51:44 437.365/2234.400
RS-15 27 Feb 08:02:08 08:13:27 72° 45° (NE) 08:25:19 29.354- 29.394
GOMX 1 27 Feb 08:10:18 08:13:40 21° 89° (E) 08:16:59 467.674
HO-68 27 Feb 08:10:36 08:16:40 29° 92° (E) 08:22:51 435.675
COMPASS 1 27 Feb 08:12:29 08:14:40 14° 87° (E) 08:17:00 437.405
AAUSAT CUBESAT 2 27 Feb 08:13:26 08:15:10 13° 86° (E) 08:17:06 437.432
AO-7 27 Feb 08:20:25 08:23:10 12° 331° (NNW) 08:25:38 29.400- 29.500
SO-50 27 Feb 08:20:34 08:23:17 15° 16° (NNE) 08:26:05 436.795
PCSat 27 Feb 08:25:45 08:27:47 12° 257° (WSW) 08:29:30 145.827
CANX-2 27 Feb 08:29:40 08:33:28 31° 95° (E) 08:37:17 2200.000
SEEDS 27 Feb 08:32:56 08:36:30 27° 94° (E) 08:40:08 437.485
DUCHIFAT 1 27 Feb 08:48:12 08:50:09 13° 59° (ENE) 08:52:16 145.980
CUTE 1.7 + AOD 2 27 Feb 08:48:42 08:52:47 44° 98° (E) 08:56:53 437.475
CUBEBUG 2 27 Feb 08:52:21 08:53:37 11° 85° (E) 08:55:06 437.445
UNISAT 6 27 Feb 08:54:14 08:57:46 25° 65° (ENE) 09:01:21 437.425
AIST 1 27 Feb 08:55:20 08:58:57 24° 292° (WNW) 09:02:32
BUGSAT 1 27 Feb 08:58:17 09:00:12 13° 59° (ENE) 09:02:17 437.445
Cubesat XI-IV 27 Feb 09:00:09 09:01:54 11° 309° (NW) 09:03:24 437.490
POLYITAN 1 27 Feb 09:02:40 09:05:34 18° 62° (ENE) 09:08:34 437.675
DOVE 4 27 Feb 09:03:16 09:07:33 46° 98° (E) 09:11:37 437.250
POPSAT HIP 1 27 Feb 09:05:09 09:08:07 19° 62° (ENE) 09:11:11 437.405
Oscar 11 27 Feb 09:11:12 09:14:45 25° 93° (E) 09:18:22 145.826/435.025
TIGRISAT 27 Feb 09:20:35 09:24:43 41° 69° (ENE) 09:28:50 435.000
BRITE-PL 27 Feb 09:22:54 09:27:39 57° 289° (WNW) 09:32:01 437.365/2234.400
NANOSAT C BR1 27 Feb 09:28:59 09:32:43 30° 67° (ENE) 09:36:30 145.865
DX 1 27 Feb 09:28:59 09:32:05 19° 91° (E) 09:35:16 434.975-435.025
ANTELSAT 27 Feb 09:31:45 09:36:04 54° 72° (ENE) 09:40:20 437.575/2403.000
GONETS M04 27 Feb 09:37:35 09:46:22 86° 262° (W) 09:55:09
CINEMA 3 27 Feb 09:40:11 09:44:25 61° 101° (E) 09:48:31 145.822/145.860
DELFI C3 27 Feb 09:42:56 09:46:48 40° 98° (E) 09:50:41 145.870
COMPASS 1 27 Feb 09:46:42 09:50:53 65° 287° (WNW) 09:55:02 437.405
AAUSAT CUBESAT 2 27 Feb 09:47:13 09:51:24 73° 286° (WNW) 09:55:34 437.432
ZACube-1 27 Feb 09:47:26 09:51:04 29° 94° (E) 09:54:43 437.345
FUNcube-1 27 Feb 09:47:38 09:51:16 29° 94° (E) 09:54:54 145.935
GOMX 1 27 Feb 09:47:46 09:52:11 46° 290° (WNW) 09:56:19 467.674
UWE-3 27 Feb 09:57:34 10:01:34 44° 98° (E) 10:05:33 435.000/436.395/437.385
HO-68 27 Feb 09:57:51 10:04:59 65° 292° (WNW) 10:12:03 435.675
QB50P1 27 Feb 10:00:11 10:04:25 61° 72° (ENE) 10:08:40 145.935-145.965
SO-50 27 Feb 10:00:37 10:05:12 37° 39° (NE) 10:09:49 436.795
QB50P2 27 Feb 10:02:36 10:06:51 65° 73° (ENE) 10:11:08 145.880/145.840
UKube-1 27 Feb 10:02:54 10:06:58 38° 97° (E) 10:11:02 .
O/OREOS (USA 219) 27 Feb 10:04:33 10:08:56 49° 110° (ESE) 10:13:24 437.305
ISS 27 Feb 10:04:53 10:06:51 15° 138° (SE) 10:08:53 145.825
CANX-2 27 Feb 10:05:41 10:09:24 29° 293° (WNW) 10:13:02 2200.000
SEEDS 27 Feb 10:08:34 10:12:24 34° 292° (WNW) 10:16:12 437.485
RS-15 27 Feb 10:14:58 10:25:25 42° 249° (WSW) 10:36:06 29.354- 29.394
DUCHIFAT 1 27 Feb 10:21:09 10:25:27 85° 256° (WSW) 10:29:46 145.980
HUMSAT D 27 Feb 10:21:13 10:25:00 35° 96° (E) 10:28:48 437.325/437.525
CUTE 1.7 + AOD 2 27 Feb 10:25:13 10:28:30 22° 296° (WNW) 10:31:42 437.475
CUBEBUG 2 27 Feb 10:26:49 10:31:01 77° 286° (WNW) 10:35:09 437.445
UNISAT 6 27 Feb 10:30:13 10:34:26 41° 263° (W) 10:38:33 437.425
BUGSAT 1 27 Feb 10:30:49 10:35:07 86° 256° (WSW) 10:39:27 437.445
POLYITAN 1 27 Feb 10:36:54 10:41:09 57° 259° (W) 10:45:24 437.675
POPSAT HIP 1 27 Feb 10:39:27 10:43:41 55° 260° (W) 10:47:55 437.405
DOVE 4 27 Feb 10:41:41 10:45:04 21° 298° (WNW) 10:48:15 437.250
Oscar 11 27 Feb 10:47:03 10:51:04 38° 291° (WNW) 10:55:03 145.826/435.025
AISAT 27 Feb 10:49:47 10:54:09 52° 100° (E) 10:58:30 437.250
TIGRISAT 27 Feb 10:58:04 11:01:41 23° 267° (W) 11:05:09 435.000
50 SAT 27 Feb 10:58:10 11:02:06 62° 101° (E) 11:06:01 437.505
Oscar 19 27 Feb 10:59:15 11:01:39 14° 55° (NE) 11:04:16 437.125/150
VELOX 1 27 Feb 11:01:10 11:05:37 65° 102° (ESE) 11:10:02 145.980
ESTCUBE 1 27 Feb 11:02:17 11:06:29 35° 96° (E) 11:10:41 437.505/2401.250
CUSAT 1 27 Feb 11:03:31 11:06:14 38° 73° (ENE) 11:08:42 437.405
DX 1 27 Feb 11:04:24 11:08:41 51° 290° (WNW) 11:12:55 434.975-435.025
NANOSAT C BR1 27 Feb 11:04:43 11:08:34 31° 265° (W) 11:12:23 145.865
CUBEBUG 1 27 Feb 11:06:53 11:10:59 35° 96° (E) 11:15:02 437.445
ANTELSAT 27 Feb 11:10:09 11:13:15 18° 270° (W) 11:16:12 437.575/2403.000
CINEMA 3 27 Feb 11:18:29 11:21:14 16° 299° (WNW) 11:23:47 145.822/145.860
DELFI C3 27 Feb 11:18:38 11:21:49 22° 295° (WNW) 11:24:57 145.870
ZACube-1 27 Feb 11:23:48 11:27:28 30° 293° (WNW) 11:31:04 437.345
FUNcube-1 27 Feb 11:23:58 11:27:38 30° 293° (WNW) 11:31:15 145.935
UWE-3 27 Feb 11:34:43 11:37:53 21° 296° (WNW) 11:40:58 435.000/436.395/437.385
GONETS M04 27 Feb 11:35:57 11:42:06 21° 283° (WNW) 11:47:54
QB50P1 27 Feb 11:38:05 11:40:46 16° 271° (W) 11:43:18 145.935-145.965
UKube-1 27 Feb 11:39:21 11:43:00 26° 296° (WNW) 11:46:36 .
ISS 27 Feb 11:39:38 11:42:52 76° 156° (SSE) 11:46:07 145.825
QB50P2 27 Feb 11:40:46 11:43:17 15° 272° (W) 11:45:37 145.880/145.840
SO-50 27 Feb 11:41:11 11:45:54 45° 239° (WSW) 11:50:35 436.795
O/OREOS (USA 219) 27 Feb 11:44:49 11:48:39 25° 310° (NW) 11:52:27 437.305
HO-68 27 Feb 11:47:01 11:51:32 18° 313° (NW) 11:55:49 435.675
SPROUT 27 Feb 11:54:17 11:58:05 30° 95° (E) 12:01:53 437.525
DANDE 27 Feb 11:54:20 11:57:16 45° 263° (W) 11:59:48 436.750
HUMSAT D 27 Feb 11:57:17 12:00:41 25° 294° (WNW) 12:04:00 437.325/437.525
AO-7 27 Feb 11:58:14 12:00:38 12° 29° (NNE) 12:03:20 29.400- 29.500
CUBEBUG 2 27 Feb 12:06:34 12:07:03 10° 303° (WNW) 12:07:19 437.445
TISAT 1 27 Feb 12:11:42 12:15:42 39° 97° (E) 12:19:41 437.305
ITAMSAT 1 27 Feb 12:26:06 12:30:22 27° 62° (ENE) 12:34:45 435.822/435.867
AISAT 27 Feb 12:27:05 12:30:29 21° 298° (WNW) 12:33:45 437.250
50 SAT 27 Feb 12:34:27 12:36:43 15° 299° (WNW) 12:38:53 437.505
Oscar 19 27 Feb 12:35:07 12:40:15 76° 73° (ENE) 12:45:25 437.125/150
VELOX 1 27 Feb 12:38:47 12:41:47 17° 300° (WNW) 12:44:38 145.980
ESTCUBE 1 27 Feb 12:39:18 12:43:18 30° 294° (WNW) 12:47:14 437.505/2401.250
CUBEBUG 1 27 Feb 12:43:26 12:47:17 28° 294° (WNW) 12:51:01 437.445
Gurwin Techsat 1B 27 Feb 13:15:02 13:20:07 49° 68° (ENE) 13:25:15 435.225
ISS 27 Feb 13:16:18 13:19:26 47° 355° (N) 13:22:35 145.825
SWISSCUBE 27 Feb 13:17:32 13:21:57 35° 96° (E) 13:26:22 437.505
BEESAT 27 Feb 13:26:49 13:31:19 39° 97° (E) 13:35:51 436.000
SPROUT 27 Feb 13:30:21 13:34:12 32° 293° (WNW) 13:37:59 437.525
AO-7 27 Feb 13:43:51 13:51:04 35° 54° (NE) 13:58:23 29.400- 29.500
TISAT 1 27 Feb 13:47:53 13:51:21 24° 295° (WNW) 13:54:43 437.305
ITUPSAT 1 27 Feb 13:51:39 13:56:29 65° 102° (ESE) 14:01:16 437.325
ITAMSAT 1 27 Feb 14:04:33 14:09:38 52° 260° (W) 14:14:46 435.822/435.867
HORYU 2 27 Feb 14:05:28 14:09:34 38° 68° (ENE) 14:13:42 437.375
Oscar 19 27 Feb 14:16:58 14:20:17 17° 273° (W) 14:23:24 437.125/150
JAS-2 27 Feb 14:28:59 14:33:26 26° 58° (ENE) 14:38:25 435.910
KKS-1 27 Feb 14:37:52 14:42:05 41° 98° (E) 14:46:17 437.445
YUBILEINY 27 Feb 14:43:10 14:47:50 17° 74° (ENE) 14:52:59 435.215
STARS 27 Feb 14:52:46 14:56:53 38° 97° (E) 15:00:59 437.465
ISS 27 Feb 14:52:55 14:56:09 63° 16° (NNE) 14:59:22 145.825
SWISSCUBE 27 Feb 14:55:28 14:59:47 33° 294° (WNW) 15:04:03 437.505
Gurwin Techsat 1B 27 Feb 14:55:51 15:00:23 27° 268° (W) 15:04:51 435.225
BEESAT 27 Feb 15:04:54 15:09:05 30° 295° (WNW) 15:13:12 436.000
Cubesat XI-IV 27 Feb 15:28:37 15:29:41 11° 50° (NE) 15:31:00 437.490
ITUPSAT 1 27 Feb 15:30:28 15:33:57 20° 300° (WNW) 15:37:20 437.325
AO-7 27 Feb 15:35:04 15:43:24 70° 255° (WSW) 15:51:46 29.400- 29.500
CUTE-I 27 Feb 15:37:31 15:39:37 13° 52° (NE) 15:41:55 437.470
HORYU 2 27 Feb 15:42:37 15:46:23 26° 267° (W) 15:50:03 437.375
JAS-2 27 Feb 16:12:44 16:18:07 60° 260° (W) 16:24:09 435.910
KKS-1 27 Feb 16:14:53 16:18:34 25° 296° (WNW) 16:22:11 437.445
M-CUBED/EXP-1 PRIME 27 Feb 16:26:51 16:30:38 37° 104° (ESE) 16:34:44 437.505
ISS 27 Feb 16:29:27 16:32:27 34° 214° (SSW) 16:35:27 145.825
STARS 27 Feb 16:29:32 16:33:14 26° 295° (WNW) 16:36:50 437.465
AUBIESAT-1 27 Feb 16:31:53 16:35:42 38° 104° (ESE) 16:39:49 437.475
YUBILEINY 27 Feb 16:34:32 16:43:11 72° 95° (E) 16:51:58 435.215
MOZHAYETS 4 27 Feb 16:59:46 17:04:23 64° 100° (E) 17:09:00
Cubesat XI-IV 27 Feb 17:03:32 17:08:45 54° 69° (ENE) 17:14:01 437.490
CUTE-I 27 Feb 17:13:29 17:18:47 64° 71° (ENE) 17:24:09 437.470
BEESAT 3 27 Feb 17:17:12 17:18:55 13° 111° (ESE) 17:20:49 437.485
AIST 1 27 Feb 17:21:05 17:23:48 16° 63° (ENE) 17:26:38
AO-7 27 Feb 17:33:03 17:37:59 16° 277° (W) 17:42:25 29.400- 29.500
BEESAT 2 27 Feb 17:37:38 17:40:21 18° 113° (ESE) 17:43:13 435.950
PRISM 27 Feb 17:49:55 17:52:49 18° 91° (E) 17:55:49 437.425
M-CUBED/EXP-1 PRIME 27 Feb 18:02:05 18:05:30 26° 299° (WNW) 18:09:04 437.505
AUBIESAT-1 27 Feb 18:07:04 18:10:29 26° 299° (WNW) 18:14:03 437.475
O/OREOS (USA 219) 27 Feb 18:31:45 18:35:39 27° 50° (NE) 18:39:36 437.305
YUBILEINY 27 Feb 18:33:18 18:40:57 31° 299° (WNW) 18:48:29 435.215
DOVE 4 27 Feb 18:37:33 18:39:46 13° 58° (ENE) 18:42:09 437.250
MOZHAYETS 4 27 Feb 18:37:59 18:41:13 19° 299° (WNW) 18:44:20
HO-68 27 Feb 18:43:24 18:49:37 35° 58° (ENE) 18:55:57 435.675
Cubesat XI-IV 27 Feb 18:44:48 18:49:13 25° 269° (W) 18:53:34 437.490
CUBESAT XI-V 27 Feb 18:48:49 18:53:33 68° 101° (ESE) 18:58:16 437.345
BEESAT 3 27 Feb 18:52:19 18:56:27 86° 307° (NW) 19:00:38 437.485
AIST 2 27 Feb 18:52:24 18:56:18 37° 120° (ESE) 19:00:19 435.215
CUTE-I 27 Feb 18:55:19 18:59:24 21° 271° (W) 19:03:21 437.470
AIST 1 27 Feb 18:57:36 19:01:59 63° 264° (W) 19:06:21
BRITE-PL 27 Feb 18:58:21 19:03:29 37° 67° (ENE) 19:08:29 437.365/2234.400
COMPASS 1 27 Feb 19:07:50 19:10:30 17° 62° (ENE) 19:13:17 437.405
AAUSAT CUBESAT 2 27 Feb 19:08:20 19:10:43 15° 61° (ENE) 19:13:14 437.432
STRAND 1 27 Feb 19:08:55 19:14:04 63° 102° (ESE) 19:19:10 437.568
CINEMA 3 27 Feb 19:11:00 19:13:16 14° 59° (ENE) 19:15:41 145.822/145.860
BEESAT 2 27 Feb 19:14:01 19:18:08 64° 311° (NW) 19:22:19 435.950
GOMX 1 27 Feb 19:20:54 19:25:53 40° 68° (ENE) 19:30:41 467.674
PRISM 27 Feb 19:24:32 19:28:39 51° 289° (WNW) 19:32:45 437.425
CANX-2 27 Feb 19:26:23 19:30:16 37° 69° (ENE) 19:34:10 2200.000
SEEDS 27 Feb 19:28:54 19:32:34 31° 68° (ENE) 19:36:17 437.485
CUTE 1.7 + AOD 2 27 Feb 19:45:15 19:49:21 52° 71° (ENE) 19:53:29 437.475
CUBEBUG 2 27 Feb 19:53:38 19:56:42 19° 63° (ENE) 19:59:48 437.445
PHONESAT 2.4 27 Feb 20:08:05 20:10:08 15° 161° (SSE) 20:12:14 2401.200-2431.200
Oscar 11 27 Feb 20:09:39 20:13:27 31° 67° (ENE) 20:17:17 145.826/435.025
O/OREOS (USA 219) 27 Feb 20:10:53 20:15:19 45° 251° (WSW) 20:19:40 437.305
DOVE 4 27 Feb 20:11:42 20:16:54 76° 74° (ENE) 20:21:51 437.250
AISAT 27 Feb 20:18:26 20:19:49 11° 56° (NE) 20:21:25 437.250
CUBESAT XI-V 27 Feb 20:27:18 20:30:33 18° 300° (WNW) 20:33:40 437.345
VERMONT LUNAR 27 Feb 20:27:25 20:30:02 20° 171° (S) 20:32:40 437.305
DX 1 27 Feb 20:28:06 20:31:49 28° 65° (ENE) 20:35:36 434.975-435.025
VELOX 1 27 Feb 20:28:43 20:30:54 14° 58° (ENE) 20:33:16 145.980
HO-68 27 Feb 20:30:01 20:37:04 60° 258° (WSW) 20:44:10 435.675
AIST 2 27 Feb 20:30:59 20:34:57 35° 319° (NW) 20:38:57 435.215
BEESAT 3 27 Feb 20:32:11 20:35:11 19° 330° (NNW) 20:38:08 437.485
DELFI C3 27 Feb 20:34:36 20:38:24 42° 70° (ENE) 20:42:16 145.870
BRITE-PL 27 Feb 20:36:38 20:41:58 40° 264° (W) 20:47:05 437.365/2234.400
COMPASS 1 27 Feb 20:41:45 20:45:51 57° 260° (W) 20:49:58 437.405
AAUSAT CUBESAT 2 27 Feb 20:41:50 20:45:57 65° 259° (WSW) 20:50:05 437.432
CINEMA 3 27 Feb 20:45:06 20:49:56 88° 72° (ENE) 20:54:35 145.822/145.860
ZACube-1 27 Feb 20:46:59 20:51:03 39° 69° (ENE) 20:55:05 437.345
FUNcube-1 27 Feb 20:47:01 20:51:04 38° 69° (ENE) 20:55:05 145.935
STRAND 1 27 Feb 20:48:54 20:52:53 22° 300° (WNW) 20:56:45 437.568
GONETS M04 27 Feb 20:49:22 20:55:35 24° 79° (ENE) 21:02:07
BEESAT 2 27 Feb 20:54:30 20:57:09 16° 333° (NNW) 20:59:44 435.950
UWE-3 27 Feb 20:58:11 21:02:35 60° 73° (ENE) 21:06:53 435.000/436.395/437.385
GOMX 1 27 Feb 20:59:08 21:04:04 34° 265° (W) 21:08:46 467.674
UKube-1 27 Feb 21:01:21 21:05:35 53° 71° (ENE) 21:09:53 .
CANX-2 27 Feb 21:02:51 21:06:21 24° 267° (W) 21:09:47 2200.000
SEEDS 27 Feb 21:04:44 21:08:25 29° 266° (W) 21:12:04 437.485
HUMSAT D 27 Feb 21:16:48 21:20:45 42° 70° (ENE) 21:24:43 437.325/437.525
CUTE 1.7 + AOD 2 27 Feb 21:22:44 21:25:39 17° 271° (W) 21:28:26 437.475
